Weather History for Columbia Airport, CA

Change the Weather History Date:

Saturday, April 19, 2014

  Actual Average (KMOD) Record (KMOD)
Temperature  
Mean Temperature 58 °F -  
Max Temperature 73 °F 76 °F 93 °F (2009)
Min Temperature 44 °F 50 °F 36 °F (1933)
Degree Days  
Heating Degree Days 6 4  
Month to date heating degree days 97  
Since 1 July heating degree days 2102  
Cooling Degree Days 0 1  
Month to date cooling degree days 15  
Year to date cooling degree days 20  
Growing Degree Days 8 (Base 50)    
Moisture  
Dew Point 43 °F    
Average Humidity 62    
Maximum Humidity 100    
Minimum Humidity 20    
Precipitation  
Precipitation 0.00 in 0.03 in 0.56 in (1981)
Month to date precipitation 0.67  
Year to date precipitation 7.70  
Since 1 July precipitation 12.06  
Snow  
Snow 0.00 in - - ()
Month to date snowfall  
Since 1 July snowfall  
Snow Depth -    
Sea Level Pressure  
Sea Level Pressure 30.03 in    
Wind  
Wind Speed 2 mph (WSW)    
Max Wind Speed 9 mph    
Max Gust Speed -    
Visibility 10 miles    
Events      
T = Trace of Precipitation, MM = Missing Value Source: NWS Daily Summary

Daily Weather History Graph

Daily Weather History Graph

Search for Another Location

Airport:

Trip Planner

Search our weather history database for the weather conditions in past years. The results will help you decide how hot, cold, wet, or windy it might be!

Date:

Astronomy

Apr. 19, 2014 Rise Set
Actual Time 6:20 AM PDT 7:41 PM PDT
Civil Twilight 5:53 AM PDT 8:09 PM PDT
Nautical Twilight 5:20 AM PDT 8:42 PM PDT
Astronomical Twilight 4:45 AM PDT 9:16 PM PDT
Moon No Moon Rise 9:46 AM PDT (4/19)
Length of Visible Light 14h 15m
Length of Day
13h 20m
Waning Gibbous, 77% of the Moon is Illuminated
Apr 19
Waning Gibbous
Apr 22
Last Quarter
Apr 28
New
May 6
First Quarter
May 14
Full

Hourly Weather History & Observations

Time (PDT) Temp. Windchill Dew Point Humidity Pressure Visibility Wind Dir Wind Speed Gust Speed Precip Events Conditions
12:15 AM 50.0 °F - 48.2 °F 94% 29.93 in 10.0 mi Calm Calm - N/A   Partly Cloudy
12:35 AM 50.0 °F - 48.2 °F 94% 29.93 in 10.0 mi Calm Calm - N/A   Clear
12:55 AM 50.0 °F - 48.2 °F 94% 29.92 in 10.0 mi Calm Calm - N/A   Clear
1:15 AM 50.0 °F - 48.2 °F 94% 29.92 in 10.0 mi Calm Calm - N/A   Clear
1:55 AM 48.2 °F - 46.4 °F 93% 29.92 in 5.0 mi Calm Calm - N/A   Clear
2:15 AM 48.2 °F - 46.4 °F 93% 29.92 in 8.0 mi Calm Calm - N/A   Clear
2:35 AM 48.2 °F - 46.4 °F 93% 29.92 in 5.0 mi Calm Calm - N/A   Clear
2:55 AM 48.2 °F - 48.2 °F 100% 29.93 in 7.0 mi Calm Calm - N/A   Clear
3:15 AM 50.0 °F - 48.2 °F 94% 29.94 in 8.0 mi NE 3.5 mph - N/A   Clear
3:35 AM 50.0 °F - 48.2 °F 94% 29.93 in 7.0 mi Calm Calm - N/A   Clear
3:55 AM 48.2 °F - 46.4 °F 93% 29.94 in 9.0 mi Calm Calm - N/A   Clear
4:35 AM 48.2 °F - 46.4 °F 93% 29.95 in 9.0 mi Calm Calm - N/A   Clear
4:55 AM 50.0 °F - 48.2 °F 94% 29.95 in 10.0 mi Calm Calm - N/A   Clear
5:15 AM 48.2 °F - 46.4 °F 93% 29.95 in 10.0 mi Calm Calm - N/A   Clear
5:35 AM 48.2 °F - 46.4 °F 93% 29.95 in 8.0 mi Calm Calm - N/A   Clear
5:55 AM 48.2 °F - 48.2 °F 100% 29.96 in 9.0 mi Calm Calm - N/A   Clear
6:15 AM 48.2 °F - 46.4 °F 93% 29.96 in 10.0 mi Calm Calm - N/A   Clear
6:35 AM 48.2 °F - 46.4 °F 93% 29.97 in 10.0 mi Calm Calm - N/A   Clear
6:55 AM 50.0 °F - 48.2 °F 94% 29.98 in 10.0 mi Calm Calm - N/A   Clear
7:15 AM 50.0 °F - 48.2 °F 94% 29.99 in 10.0 mi Calm Calm - N/A   Clear
7:35 AM 53.6 °F - 50.0 °F 88% 30.00 in 10.0 mi Calm Calm - N/A   Clear
7:55 AM 55.4 °F - 50.0 °F 82% 30.01 in 10.0 mi Calm Calm - N/A   Clear
8:15 AM 57.2 °F - 50.0 °F 77% 30.01 in 10.0 mi Calm Calm - N/A   Clear
8:35 AM 60.8 °F - 50.0 °F 68% 30.01 in 10.0 mi Calm Calm - N/A   Clear
8:55 AM 62.6 °F - 50.0 °F 63% 30.02 in 10.0 mi SSW 3.5 mph - N/A   Clear
9:15 AM 64.4 °F - 50.0 °F 59% 30.02 in 10.0 mi South 5.8 mph - N/A   Clear
9:35 AM 66.2 °F - 50.0 °F 56% 30.02 in 10.0 mi SE 3.5 mph - N/A   Clear
9:55 AM 66.2 °F - 50.0 °F 56% 30.03 in 10.0 mi South 5.8 mph - N/A   Clear
10:15 AM 68.0 °F - 50.0 °F 52% 30.03 in 10.0 mi South 8.1 mph - N/A   Clear
10:35 AM 68.0 °F - 51.8 °F 56% 30.03 in 10.0 mi SSW 6.9 mph - N/A   Clear
10:55 AM 68.0 °F - 51.8 °F 56% 30.04 in 10.0 mi SW 4.6 mph - N/A   Clear
11:15 AM 68.0 °F - 50.0 °F 52% 30.05 in 10.0 mi SW 9.2 mph - N/A   Clear
11:35 AM 68.0 °F - 46.4 °F 46% 30.05 in 10.0 mi SSW 5.8 mph - N/A   Clear
11:55 AM 69.8 °F - 44.6 °F 40% 30.05 in 10.0 mi SSE 5.8 mph - N/A   Clear
12:15 PM 69.8 °F - 44.6 °F 40% 30.05 in 10.0 mi South 6.9 mph - N/A   Clear
12:35 PM 69.8 °F - 46.4 °F 43% 30.06 in 10.0 mi WSW 6.9 mph - N/A   Clear
12:55 PM 69.8 °F - 46.4 °F 43% 30.06 in 10.0 mi WSW 8.1 mph - N/A   Clear
1:15 PM 69.8 °F - 41.0 °F 35% 30.07 in 10.0 mi WSW 6.9 mph - N/A   Clear
1:35 PM 71.6 °F - 35.6 °F 27% 30.07 in 10.0 mi West 4.6 mph - N/A   Clear
1:55 PM 71.6 °F - 39.2 °F 31% 30.07 in 10.0 mi WSW 3.5 mph - N/A   Clear
2:15 PM 73.4 °F - 39.2 °F 29% 30.06 in 10.0 mi WNW 5.8 mph - N/A   Clear
2:35 PM 73.4 °F - 39.2 °F 29% 30.06 in 10.0 mi West 8.1 mph - N/A   Clear
2:55 PM 73.4 °F - 35.6 °F 25% 30.06 in 10.0 mi West 9.2 mph - N/A   Clear
3:15 PM 73.4 °F - 33.8 °F 23% 30.06 in 10.0 mi South 5.8 mph - N/A   Clear
3:35 PM 73.4 °F - 32.0 °F 22% 30.06 in 10.0 mi WNW 6.9 mph - N/A   Clear
3:55 PM 71.6 °F - 28.4 °F 20% 30.06 in 10.0 mi NNW 5.8 mph - N/A   Clear
4:15 PM 71.6 °F - 32.0 °F 23% 30.06 in 10.0 mi West 8.1 mph - N/A   Clear
4:35 PM 71.6 °F - 30.2 °F 22% 30.06 in 10.0 mi NW 5.8 mph - N/A   Clear
4:55 PM 69.8 °F - 32.0 °F 25% 30.06 in 10.0 mi WNW 4.6 mph - N/A   Clear
5:15 PM 69.8 °F - 32.0 °F 25% 30.06 in 10.0 mi West 6.9 mph - N/A   Clear
5:35 PM 68.0 °F - 32.0 °F 26% 30.07 in 10.0 mi WNW 5.8 mph - N/A   Clear
5:55 PM 68.0 °F - 32.0 °F 26% 30.07 in 10.0 mi WNW 4.6 mph - N/A   Clear
6:15 PM 66.2 °F - 35.6 °F 32% 30.06 in 10.0 mi WNW 4.6 mph - N/A   Clear
6:35 PM 64.4 °F - 35.6 °F 34% 30.07 in 10.0 mi NW 4.6 mph - N/A   Clear
6:55 PM 62.6 °F - 37.4 °F 39% 30.06 in 10.0 mi Calm Calm - N/A   Clear
7:15 PM 59.0 °F - 39.2 °F 48% 30.07 in 10.0 mi Calm Calm - N/A   Clear
7:35 PM 57.2 °F - 37.4 °F 48% 30.07 in 10.0 mi Calm Calm - N/A   Clear
7:55 PM 55.4 °F - 39.2 °F 54% 30.07 in 10.0 mi Calm Calm - N/A   Clear
8:15 PM 53.6 °F - 39.2 °F 58% 30.08 in 9.0 mi NE 3.5 mph - N/A   Clear
8:35 PM 50.0 °F - 39.2 °F 66% 30.08 in 10.0 mi Calm Calm - N/A   Clear
8:55 PM 50.0 °F - 39.2 °F 66% 30.08 in 10.0 mi Calm Calm - N/A   Clear
9:15 PM 48.2 °F - 39.2 °F 71% 30.09 in 10.0 mi Calm Calm - N/A   Clear
9:35 PM 48.2 °F - 39.2 °F 71% 30.10 in 10.0 mi Calm Calm - N/A   Clear
9:55 PM 48.2 °F - 39.2 °F 71% 30.10 in 10.0 mi ENE 3.5 mph - N/A   Clear
10:15 PM 48.2 °F - 39.2 °F 71% 30.10 in 9.0 mi NW 3.5 mph - N/A   Clear
10:35 PM 46.4 °F 45.2 °F 37.4 °F 71% 30.10 in 10.0 mi ENE 3.5 mph - N/A   Clear
10:55 PM 46.4 °F - 37.4 °F 71% 30.10 in 10.0 mi Calm Calm - N/A   Clear
11:15 PM 44.6 °F - 37.4 °F 76% 30.11 in 9.0 mi Calm Calm - N/A   Clear
11:35 PM 44.6 °F 43.1 °F 37.4 °F 76% 30.10 in 10.0 mi NE 3.5 mph - N/A   Clear
11:55 PM 44.6 °F - 37.4 °F 76% 30.10 in 10.0 mi Calm Calm - N/A   Clear